TimeEST,TemperatureF,Dew PointF,Humidity,Sea Level PressureIn,VisibilityMPH,Wind Direction,Wind SpeedMPH,Gust SpeedMPH,PrecipitationIn,Events,Conditions,WindDirDegrees,DateUTC
12:54 AM,30.9,26.1,82,30.19,7.0,SE,5.8,-,N/A,,Overcast,140,2013-02-07 05:54:00
1:54 AM,30.9,26.1,82,30.17,7.0,ESE,6.9,-,N/A,,Overcast,120,2013-02-07 06:54:00
2:54 AM,28.9,26.1,89,30.15,6.0,ESE,6.9,-,N/A,,Mostly Cloudy,110,2013-02-07 07:54:00
3:54 AM,28.0,25.0,88,30.15,6.0,ESE,5.8,-,N/A,,Mostly Cloudy,120,2013-02-07 08:54:00
4:54 AM,30.0,26.1,85,30.14,6.0,ESE,8.1,-,N/A,,Overcast,120,2013-02-07 09:54:00
5:54 AM,30.0,27.0,88,30.12,5.0,ESE,6.9,-,N/A,,Overcast,120,2013-02-07 10:54:00
6:54 AM,30.9,28.0,89,30.11,6.0,SE,5.8,-,N/A,,Overcast,130,2013-02-07 11:54:00
7:54 AM,30.9,27.0,85,30.10,5.0,East,3.5,-,N/A,,Overcast,80,2013-02-07 12:54:00
8:54 AM,32.0,28.0,85,30.09,4.0,SE,9.2,-,N/A,,Scattered Clouds,140,2013-02-07 13:54:00
9:54 AM,36.0,28.9,76,30.08,6.0,SE,10.4,-,N/A,,Haze,130,2013-02-07 14:54:00
10:54 AM,39.9,30.9,70,30.06,8.0,ESE,6.9,-,N/A,,Scattered Clouds,110,2013-02-07 15:54:00
11:54 AM,43.0,30.9,62,30.05,10.0,SE,6.9,-,N/A,,Scattered Clouds,130,2013-02-07 16:54:00
12:54 PM,46.0,32.0,58,30.00,10.0,SE,8.1,-,N/A,,Partly Cloudy,140,2013-02-07 17:54:00
1:54 PM,48.9,33.1,54,29.96,10.0,Calm,Calm,-,N/A,,Partly Cloudy,0,2013-02-07 18:54:00
2:54 PM,52.0,33.1,49,29.93,10.0,SSE,5.8,-,N/A,,Partly Cloudy,160,2013-02-07 19:54:00
3:54 PM,53.1,34.0,48,29.90,10.0,ESE,6.9,-,N/A,,Scattered Clouds,120,2013-02-07 20:54:00
4:54 PM,50.0,36.0,59,29.88,10.0,ESE,10.4,-,N/A,,Scattered Clouds,120,2013-02-07 21:54:00
5:54 PM,48.9,37.0,64,29.84,10.0,ESE,9.2,-,N/A,,Scattered Clouds,120,2013-02-07 22:54:00
6:54 PM,48.0,36.0,63,29.85,10.0,SSE,9.2,-,N/A,,Mostly Cloudy,150,2013-02-07 23:54:00
7:54 PM,48.0,37.0,66,29.83,10.0,SSE,8.1,-,N/A,,Overcast,150,2013-02-08 00:54:00
8:54 PM,48.0,37.0,66,29.82,10.0,SSW,4.6,-,N/A,,Overcast,200,2013-02-08 01:54:00
9:54 PM,46.0,43.0,89,29.83,6.0,WNW,11.5,-,0.03,Rain,Light Rain,300,2013-02-08 02:54:00
10:41 PM,44.6,44.6,100,29.81,4.0,WNW,5.8,-,0.05,Rain,Light Rain,290,2013-02-08 03:41:00
10:54 PM,45.0,44.1,97,29.82,3.0,WNW,6.9,-,0.06,Rain,Light Rain,290,2013-02-08 03:54:00
10:59 PM,44.6,44.6,100,29.81,3.0,WNW,6.9,-,0.00,Rain,Light Rain,290,2013-02-08 03:59:00
11:54 PM,43.0,42.1,97,29.83,5.0,WNW,12.7,-,0.03,Rain,Light Rain,290,2013-02-08 04:54:00